"Pseudo-MPEC" for P11dhNj
Created 2021 Mar 4 14:07:10 UT using Find_Orb
Click here for an explanation of pseudo-MPECs
Astrometry: P11dhNj C2021 02 124r*b+6nP:N_I5JM/
Astrometrydt8esm=yUOqkVF%)Ph4A65dW_T
F51 P11dhNj C2021 02 12W/'fNUXm)d\[9SLIy,R)t@Jd^`O;E]r.d8\tKOWQ99f,ll0ExbNL
F51 P11dhNj C2021 02 12)y7A_@]*#/lAO;MXr$Lej2W\B5+Qah*x/
redacted;ilMAV
clickF51 P11dhNj C2021 02 12
?=XHX
here_[+c-J-?(C^X!5@i?rxb
for7Ei2!
explanation/O31
F51 P11dhNj ^C2021 02 13.26721308 59 34.699+50 33 04.39 ~2DEb 22.75GVNEOCP568 P11dhNj ^C2021 02 13.26855908 59 34.671+50 33 08.05 ~2DEb 21.90GVNEOCP568 P11dhNj ^C2021 02 13.26977008 59 34.635+50 33 11.28 ~2DEb 22.87GVNEOCP568 Station data: (568) Mauna Kea (N19.826116 W155.472200) US/Hawaii. (F51) Pan-STARRS 1, Haleakala (N20.707235 W156.255910) US/Hawaii. Observers N. Primak, A. Schultz, S. Watters, J. Thiel, T. Goggia. Measurer PS1 Science Consortium. 1.8-m Ritchey-Chrétien + CCD. Orbital elements: P11dhNj Perihelion 2021 Mar 30.094874 +/- 1.49682 TT = 2:16:37 (JD 2459303.594874) Epoch 2021 Feb 13.0 TT = JDT 2459258.5 Earth MOID: 0.0764 Ma: 0.0253 M 329.59173363 +/- 2.2559487 (J2000 ecliptic) AutoNEOCP n 0.67431758 +/- 0.0715395 Peri. 99.84923 +/- 27.264863 a 1.28793236 +/- 0.0910848 Node 87.01104 +/- 23.515228 e 0.1963872 +/- 0.0755745 Incl. 4.15302 +/- 0.7761294 P 1.46/533.86d H 25.8 G 0.15 U 11.0 q 1.03499887 +/- 0.025791 Q 1.54086586 +/- 0.217191 From 7 observations 2021 Feb. 12-13 (19.6 hr); mean residual 0".05
Residuals in arcseconds: 210212 F51 .04- .02- 210212 F51 .01+ .00 210213 568 .11- .02- 210212 F51 .07+ .03+ 210213 568 .08+ .00 210212 F51 .04- .01- 210213 568 .03+ .02+ Ephemerides (geocentric): Date (UTC) HH RA Dec delta r elong mag " sig PA ---- -- -- -- ------------- ----------- ------ ------ ----- --- ---- --- 2021 03 04 14 09 21 52.514 +61 22 53.45 .10709 1.0522 121.9 23.0 714 16 2021 03 04 15 09 21 58.861 +61 23 56.19 .10707 1.0522 121.9 23.0 717 16 2021 03 04 16 09 22 05.226 +61 24 58.81 .10704 1.0521 121.9 23.0 720 16 2021 03 04 17 09 22 11.611 +61 26 01.33 .10701 1.0521 121.8 23.0 723 16 2021 03 04 18 09 22 18.015 +61 27 03.74 .10699 1.0520 121.8 23.0 726 16 2021 03 04 19 09 22 24.437 +61 28 06.04 .10696 1.0520 121.8 23.0 729 16 2021 03 04 20 09 22 30.878 +61 29 08.23 .10694 1.0519 121.7 23.0 732 16 2021 03 04 21 09 22 37.338 +61 30 10.31 .10691 1.0519 121.7 23.0 735 16 2021 03 04 22 09 22 43.818 +61 31 12.27 .10689 1.0518 121.7 23.0 738 16 2021 03 04 23 09 22 50.316 +61 32 14.13 .10686 1.0518 121.6 23.0 741 16 2021 03 05 00 09 22 56.833 +61 33 15.88 .10683 1.0517 121.6 23.0 744 16 2021 03 05 01 09 23 03.370 +61 34 17.52 .10681 1.0516 121.6 23.0 747 16 2021 03 05 02 09 23 09.925 +61 35 19.05 .10678 1.0516 121.5 23.0 750 16 2021 03 05 03 09 23 16.500 +61 36 20.47 .10676 1.0515 121.5 23.0 753 16 2021 03 05 04 09 23 23.094 +61 37 21.77 .10673 1.0515 121.5 23.0 756 16 2021 03 05 05 09 23 29.707 +61 38 22.97 .10671 1.0514 121.4 23.0 759 16 2021 03 05 06 09 23 36.339 +61 39 24.05 .10668 1.0514 121.4 23.0 762 16 2021 03 05 07 09 23 42.990 +61 40 25.03 .10665 1.0513 121.4 23.0 766 17 2021 03 05 08 09 23 49.661 +61 41 25.89 .10663 1.0513 121.3 23.0 769 17 2021 03 05 09 09 23 56.351 +61 42 26.64 .10660 1.0512 121.3 23.0 772 17 2021 03 05 10 09 24 03.060 +61 43 27.28 .10658 1.0512 121.3 23.0 775 17 2021 03 05 11 09 24 09.788 +61 44 27.80 .10655 1.0511 121.2 23.0 778 17 2021 03 05 12 09 24 16.536 +61 45 28.22 .10653 1.0511 121.2 23.0 781 17 2021 03 05 13 09 24 23.303 +61 46 28.52 .10650 1.0510 121.2 23.0 784 17 2021 03 05 14 09 24 30.090 +61 47 28.71 .10648 1.0509 121.1 23.0 787 17 2021 03 05 15 09 24 36.896 +61 48 28.79 .10645 1.0509 121.1 23.0 790 17 2021 03 05 16 09 24 43.722 +61 49 28.75 .10642 1.0508 121.1 23.0 794 17 2021 03 05 17 09 24 50.567 +61 50 28.60 .10640 1.0508 121.1 23.0 797 17 2021 03 05 18 09 24 57.431 +61 51 28.34 .10637 1.0507 121.0 23.0 800 17 2021 03 05 19 09 25 04.315 +61 52 27.96 .10635 1.0507 121.0 23.0 803 17 2021 03 05 20 09 25 11.219 +61 53 27.48 .10632 1.0506 121.0 23.0 806 17 2021 03 05 21 09 25 18.142 +61 54 26.87 .10630 1.0506 120.9 23.0 809 17 2021 03 05 22 09 25 25.085 +61 55 26.16 .10627 1.0505 120.9 23.0 812 17 2021 03 05 23 09 25 32.047 +61 56 25.33 .10625 1.0505 120.9 23.0 816 17 2021 03 06 00 09 25 39.029 +61 57 24.38 .10622 1.0504 120.8 23.0 819 17 2021 03 06 01 09 25 46.031 +61 58 23.33 .10620 1.0504 120.8 23.0 822 17 2021 03 06 02 09 25 53.053 +61 59 22.15 .10617 1.0503 120.8 23.0 825 17 2021 03 06 03 09 26 00.094 +62 00 20.87 .10615 1.0503 120.7 23.0 828 17 2021 03 06 04 09 26 07.155 +62 01 19.47 .10612 1.0502 120.7 23.0 832 17 2021 03 06 05 09 26 14.236 +62 02 17.95 .10609 1.0502 120.7 23.0 835 17 2021 03 06 06 09 26 21.336 +62 03 16.32 .10607 1.0501 120.6 23.0 838 17 2021 03 06 07 09 26 28.457 +62 04 14.57 .10604 1.0501 120.6 23.0 841 17 2021 03 06 08 09 26 35.597 +62 05 12.71 .10602 1.0500 120.6 23.0 845 17 2021 03 06 09 09 26 42.757 +62 06 10.73 .10599 1.0500 120.5 23.0 848 17 2021 03 06 10 09 26 49.937 +62 07 08.64 .10597 1.0499 120.5 23.0 851 17 2021 03 06 11 09 26 57.137 +62 08 06.43 .10594 1.0499 120.5 23.0 854 17 2021 03 06 12 09 27 04.357 +62 09 04.10 .10592 1.0498 120.4 23.0 858 18 2021 03 06 13 09 27 11.597 +62 10 01.66 .10589 1.0497 120.4 23.0 861 18